EZS1473 LSGG-LGSR

Flight info

Callsign EZS1473
Flight time 2h 30m
Altitude 35000
Route MEDAM DCT NITAM DCT MOGBO DCT KODOK DCT LATAN DCT TRL UM601 PEXAN
Aircraft A320/M-SDE2E3FGHIJ1RWXYZ/LB1

Departure

Time 2026-04-20 12:57
Airport Geneva International Airport (LSGG)

Arrival

Time 2026-04-20 15:27
Airport Santorini International Airport (LGSR)
Time Latitude Longitude Altitude Speed Heading
2026-04-20 12:08 46.23054 6.10614 1393 ft 0 kts 136°
2026-04-20 12:48 46.23062 6.10603 1393 ft 4 kts 142°
2026-04-20 12:48 46.23085 6.10584 1403 ft 4 kts 167°
2026-04-20 12:49 46.23111 6.10583 1400 ft 4 kts 206°
2026-04-20 12:49 46.23120 6.10591 1400 ft 0 kts 225°
2026-04-20 12:51 46.23104 6.10567 1398 ft 5 kts 226°
2026-04-20 12:51 46.23079 6.10531 1400 ft 6 kts 225°
2026-04-20 12:52 46.23035 6.10467 1393 ft 9 kts 225°
2026-04-20 12:52 46.22998 6.10413 1395 ft 7 kts 225°
2026-04-20 12:52 46.22967 6.10369 1393 ft 5 kts 225°
2026-04-20 12:52 46.22952 6.10331 1399 ft 4 kts 261°
2026-04-20 12:53 46.22967 6.10287 1402 ft 9 kts 310°
2026-04-20 12:53 46.23011 6.10224 1398 ft 8 kts 315°
2026-04-20 12:53 46.23048 6.10171 1396 ft 8 kts 314°
2026-04-20 12:53 46.23039 6.10101 1397 ft 13 kts 225°
2026-04-20 12:54 46.22961 6.09988 1399 ft 19 kts 226°
2026-04-20 12:54 46.22881 6.09870 1400 ft 14 kts 227°
2026-04-20 12:54 46.22816 6.09774 1395 ft 12 kts 226°
2026-04-20 12:54 46.22748 6.09676 1400 ft 15 kts 225°
2026-04-20 12:55 46.22670 6.09562 1398 ft 16 kts 225°
2026-04-20 12:55 46.22597 6.09457 1397 ft 14 kts 227°
2026-04-20 12:55 46.22556 6.09351 1405 ft 13 kts 255°
2026-04-20 12:55 46.22554 6.09213 1411 ft 13 kts 284°
2026-04-20 12:56 46.22597 6.09160 1415 ft 5 kts 356°
2026-04-20 12:56 46.22635 6.09180 1416 ft 9 kts 34°
2026-04-20 12:56 46.22683 6.09247 1417 ft 11 kts 44°
2026-04-20 12:56 46.22852 6.09495 1417 ft 69 kts 45°
2026-04-20 12:57 46.23344 6.10220 1399 ft 131 kts 45°
2026-04-20 12:57 46.24106 6.11336 1379 ft 178 kts 46°
2026-04-20 12:57 46.25016 6.12689 1803 ft 191 kts 46°
2026-04-20 12:57 46.25927 6.14061 2666 ft 189 kts 45°
2026-04-20 12:58 46.26884 6.15473 3118 ft 207 kts 45°
2026-04-20 12:58 46.27942 6.17024 3397 ft 231 kts 45°
2026-04-20 12:58 46.29126 6.18758 3731 ft 254 kts 45°
2026-04-20 12:58 46.30396 6.20619 4383 ft 263 kts 44°
2026-04-20 12:59 46.31692 6.22518 5170 ft 268 kts 44°
2026-04-20 12:59 46.33010 6.24448 5959 ft 272 kts 44°
2026-04-20 12:59 46.34351 6.26413 6687 ft 277 kts 44°
2026-04-20 12:59 46.35533 6.28624 7384 ft 283 kts 63°
2026-04-20 13:00 46.36029 6.31390 8115 ft 289 kts 89°
2026-04-20 13:00 46.35660 6.34250 8855 ft 292 kts 115°
2026-04-20 13:00 46.34463 6.36599 9605 ft 293 kts 142°
2026-04-20 13:00 46.32708 6.38011 10262 ft 298 kts 161°
2026-04-20 13:01 46.30693 6.39111 10462 ft 321 kts 162°
2026-04-20 13:01 46.28532 6.40259 10751 ft 337 kts 162°
2026-04-20 13:01 46.26301 6.41438 11395 ft 344 kts 162°
2026-04-20 13:01 46.24032 6.42640 12028 ft 350 kts 162°
2026-04-20 13:02 46.21731 6.43859 12645 ft 355 kts 162°
2026-04-20 13:02 46.19397 6.45099 13337 ft 360 kts 162°
2026-04-20 13:02 46.17028 6.46366 13935 ft 366 kts 162°
2026-04-20 13:02 46.14627 6.47656 14507 ft 370 kts 162°
2026-04-20 13:03 46.12238 6.48941 15143 ft 373 kts 163°
2026-04-20 13:03 46.09792 6.50250 15723 ft 376 kts 163°
2026-04-20 13:03 46.07334 6.51559 16295 ft 379 kts 163°
2026-04-20 13:03 46.04845 6.52883 16868 ft 382 kts 164°
2026-04-20 13:04 46.02341 6.54211 17427 ft 385 kts 164°
2026-04-20 13:04 45.99821 6.55551 18001 ft 389 kts 164°
2026-04-20 13:04 45.97275 6.56905 18549 ft 392 kts 164°
2026-04-20 13:04 45.94717 6.58266 18994 ft 392 kts 164°
2026-04-20 13:05 45.92176 6.59612 19385 ft 397 kts 165°
2026-04-20 13:05 45.89570 6.60988 19800 ft 401 kts 165°
2026-04-20 13:05 45.86935 6.62378 20240 ft 405 kts 165°
2026-04-20 13:05 45.84278 6.63780 20734 ft 408 kts 165°
2026-04-20 13:06 45.81604 6.65192 21206 ft 411 kts 165°
2026-04-20 13:06 45.78907 6.66617 21692 ft 415 kts 165°
2026-04-20 13:06 45.76189 6.68051 22189 ft 418 kts 165°
2026-04-20 13:06 45.73443 6.69496 22673 ft 422 kts 164°
2026-04-20 13:07 45.70714 6.70930 23133 ft 425 kts 165°
2026-04-20 13:07 45.67927 6.72395 23556 ft 428 kts 165°
2026-04-20 13:07 45.65122 6.73870 23960 ft 431 kts 165°
2026-04-20 13:07 45.62302 6.75352 24298 ft 433 kts 165°
2026-04-20 13:08 45.59472 6.76837 24616 ft 436 kts 165°
2026-04-20 13:08 45.56613 6.78331 24984 ft 439 kts 165°
2026-04-20 13:08 45.53736 6.79828 25347 ft 441 kts 165°
2026-04-20 13:08 45.50841 6.81333 25683 ft 444 kts 165°
2026-04-20 13:09 45.47970 6.82826 26008 ft 446 kts 165°
2026-04-20 13:09 45.45049 6.84346 26337 ft 448 kts 165°
2026-04-20 13:09 45.42108 6.85874 26658 ft 451 kts 165°
2026-04-20 13:09 45.39162 6.87403 27002 ft 453 kts 165°
2026-04-20 13:10 45.36196 6.88943 27313 ft 455 kts 165°
2026-04-20 13:10 45.33214 6.90492 27621 ft 457 kts 165°
2026-04-20 13:10 45.30220 6.92055 27919 ft 460 kts 163°
2026-04-20 13:10 45.27311 6.94044 28240 ft 468 kts 154°
2026-04-20 13:11 45.24641 6.96645 28535 ft 476 kts 144°
2026-04-20 13:11 45.22196 6.99849 28825 ft 481 kts 139°
2026-04-20 13:11 45.19799 7.03174 29104 ft 483 kts 139°
2026-04-20 13:11 45.17387 7.06502 29400 ft 485 kts 139°
2026-04-20 13:12 45.14959 7.09832 29686 ft 486 kts 139°
2026-04-20 13:12 45.12519 7.13165 29957 ft 488 kts 139°
2026-04-20 13:12 45.10202 7.16707 30183 ft 493 kts 131°
2026-04-20 13:12 45.08186 7.20654 30388 ft 496 kts 127°
2026-04-20 13:13 45.06234 7.24607 30581 ft 497 kts 127°
2026-04-20 13:13 45.04254 7.28603 30825 ft 497 kts 127°
2026-04-20 13:13 45.02267 7.32593 31092 ft 496 kts 127°
2026-04-20 13:13 45.00311 7.36610 31340 ft 497 kts 123°
2026-04-20 13:14 44.98691 7.40921 31598 ft 497 kts 114°
2026-04-20 13:14 44.97521 7.45513 31812 ft 497 kts 104°
2026-04-20 13:14 44.96766 7.50272 32071 ft 497 kts 101°
2026-04-20 13:14 44.96065 7.55047 32323 ft 497 kts 101°
2026-04-20 13:15 44.95350 7.59820 32593 ft 496 kts 101°
2026-04-20 13:15 44.94547 7.64491 32851 ft 497 kts 107°
2026-04-20 13:15 44.93305 7.69033 33101 ft 496 kts 116°
2026-04-20 13:15 44.91660 7.73302 33354 ft 495 kts 122°
2026-04-20 13:16 44.89929 7.77486 33607 ft 495 kts 121°
2026-04-20 13:16 44.88204 7.81685 33871 ft 495 kts 121°
2026-04-20 13:16 44.86484 7.85884 34105 ft 494 kts 121°
2026-04-20 13:16 44.84766 7.90078 34327 ft 494 kts 121°
2026-04-20 13:17 44.83047 7.94266 34539 ft 494 kts 121°
2026-04-20 13:17 44.81348 7.98391 34760 ft 493 kts 121°
2026-04-20 13:17 44.79623 8.02564 34896 ft 493 kts 121°
2026-04-20 13:18 44.76185 8.10848 34940 ft 488 kts 121°
2026-04-20 13:18 44.72757 8.19086 34940 ft 488 kts 122°
2026-04-20 13:19 44.69349 8.27258 34942 ft 488 kts 122°
2026-04-20 13:19 44.65916 8.35464 34946 ft 487 kts 122°
2026-04-20 13:20 44.62476 8.43666 34952 ft 487 kts 122°
2026-04-20 13:20 44.59036 8.51862 34960 ft 487 kts 121°
2026-04-20 13:21 44.55592 8.60040 34959 ft 487 kts 122°
2026-04-20 13:21 44.52135 8.68208 34955 ft 487 kts 121°
2026-04-20 13:22 44.48692 8.76312 34961 ft 487 kts 122°
2026-04-20 13:22 44.45227 8.84467 34956 ft 488 kts 122°
2026-04-20 13:23 44.41750 8.92622 34959 ft 488 kts 122°
2026-04-20 13:23 44.38268 9.00755 34961 ft 488 kts 122°
2026-04-20 13:24 44.34801 9.08829 34962 ft 488 kts 122°
2026-04-20 13:24 44.31306 9.16944 34964 ft 487 kts 122°
2026-04-20 13:25 44.27806 9.25045 34965 ft 487 kts 122°
2026-04-20 13:25 44.24308 9.33144 34972 ft 487 kts 122°
2026-04-20 13:26 44.20803 9.41229 34976 ft 487 kts 122°
2026-04-20 13:26 44.17321 9.49240 34976 ft 487 kts 122°
2026-04-20 13:27 44.13803 9.57307 34986 ft 487 kts 122°
2026-04-20 13:27 44.10273 9.65359 34988 ft 487 kts 122°
2026-04-20 13:28 44.06742 9.73404 34990 ft 487 kts 122°
2026-04-20 13:28 44.03234 9.81389 34994 ft 487 kts 122°
2026-04-20 13:29 43.99693 9.89423 34997 ft 487 kts 122°
2026-04-20 13:29 43.96143 9.97447 34997 ft 488 kts 122°
2026-04-20 13:30 43.92582 10.05453 35003 ft 488 kts 123°
2026-04-20 13:30 43.89019 10.13465 34992 ft 488 kts 123°
2026-04-20 13:31 43.85475 10.21418 35000 ft 488 kts 123°
2026-04-20 13:31 43.81898 10.29408 34996 ft 488 kts 123°
2026-04-20 13:32 43.78314 10.37390 34995 ft 488 kts 123°
2026-04-20 13:32 43.74725 10.45367 34996 ft 488 kts 123°
2026-04-20 13:33 43.71141 10.53335 34999 ft 488 kts 123°
2026-04-20 13:33 43.67565 10.61241 34992 ft 488 kts 123°
2026-04-20 13:34 43.63957 10.69187 34984 ft 488 kts 123°
2026-04-20 13:34 43.60348 10.77123 34976 ft 488 kts 123°
2026-04-20 13:35 43.56739 10.85040 34963 ft 488 kts 123°
2026-04-20 13:35 43.53139 10.92902 34964 ft 488 kts 123°
2026-04-20 13:36 43.49517 11.00814 34960 ft 488 kts 123°
2026-04-20 13:36 43.45886 11.08711 34961 ft 488 kts 123°
2026-04-20 13:37 43.42248 11.16597 34969 ft 488 kts 123°
2026-04-20 13:37 43.38632 11.24420 34973 ft 487 kts 123°
2026-04-20 13:38 43.34988 11.32270 34970 ft 487 kts 123°
2026-04-20 13:38 43.31343 11.40115 34974 ft 487 kts 123°
2026-04-20 13:39 43.27698 11.47956 34973 ft 487 kts 123°
2026-04-20 13:39 43.24071 11.55734 34971 ft 487 kts 123°
2026-04-20 13:40 43.20404 11.63548 34973 ft 488 kts 123°
2026-04-20 13:40 43.16726 11.71361 34977 ft 488 kts 123°
2026-04-20 13:41 43.13045 11.79169 34976 ft 488 kts 123°
2026-04-20 13:41 43.09391 11.86926 34977 ft 488 kts 123°
2026-04-20 13:42 43.05705 11.94721 34976 ft 488 kts 123°
2026-04-20 13:42 43.00152 12.06408 34977 ft 489 kts 123°
2026-04-20 13:43 42.96452 12.14175 34975 ft 489 kts 123°
2026-04-20 13:43 42.92764 12.21893 34972 ft 488 kts 123°
2026-04-20 13:44 42.89052 12.29648 34972 ft 488 kts 123°
2026-04-20 13:44 42.85335 12.37386 34977 ft 488 kts 123°
2026-04-20 13:45 42.81607 12.45120 34979 ft 488 kts 123°
2026-04-20 13:45 42.77901 12.52804 34983 ft 488 kts 123°
2026-04-20 13:46 42.74165 12.60515 34983 ft 488 kts 124°
2026-04-20 13:46 42.70423 12.68204 34997 ft 488 kts 124°
2026-04-20 13:47 42.66685 12.75904 35004 ft 488 kts 124°
2026-04-20 13:47 42.62949 12.83590 35006 ft 488 kts 124°
2026-04-20 13:48 42.59221 12.91210 35013 ft 488 kts 124°
2026-04-20 13:48 42.55460 12.98874 35018 ft 488 kts 124°
2026-04-20 13:49 42.51692 13.06523 35016 ft 488 kts 124°
2026-04-20 13:49 42.47921 13.14165 35014 ft 488 kts 124°
2026-04-20 13:50 42.44174 13.21740 35001 ft 488 kts 124°
2026-04-20 13:50 42.40402 13.29368 34991 ft 488 kts 124°
2026-04-20 13:51 42.36629 13.36982 34987 ft 487 kts 124°
2026-04-20 13:51 42.32846 13.44587 34985 ft 487 kts 124°
2026-04-20 13:52 42.29083 13.52125 34983 ft 487 kts 124°
2026-04-20 13:52 42.25293 13.59699 34983 ft 487 kts 124°
2026-04-20 13:53 42.21501 13.67254 34985 ft 486 kts 124°
2026-04-20 13:53 42.17705 13.74796 34984 ft 486 kts 124°
2026-04-20 13:54 42.13933 13.82267 34982 ft 485 kts 124°
2026-04-20 13:54 42.10141 13.89781 34978 ft 485 kts 124°
2026-04-20 13:55 42.06346 13.97284 34979 ft 485 kts 124°
2026-04-20 13:55 42.02544 14.04767 34978 ft 484 kts 125°
2026-04-20 13:56 41.98741 14.12235 34980 ft 484 kts 125°
2026-04-20 13:56 41.94963 14.19644 34983 ft 483 kts 125°
2026-04-20 13:57 41.91163 14.27076 34981 ft 482 kts 125°
2026-04-20 13:57 41.87363 14.34487 34985 ft 482 kts 125°
2026-04-20 13:58 41.83556 14.41887 34985 ft 481 kts 125°
2026-04-20 13:58 41.79774 14.49212 34981 ft 481 kts 125°
2026-04-20 13:59 41.75972 14.56583 34975 ft 481 kts 125°
2026-04-20 13:59 41.72173 14.63943 34974 ft 480 kts 125°
2026-04-20 14:00 41.68367 14.71269 34974 ft 480 kts 125°
2026-04-20 14:00 41.64576 14.78538 34979 ft 479 kts 126°
2026-04-20 14:01 41.60762 14.85834 34998 ft 478 kts 126°
2026-04-20 14:01 41.56961 14.93109 34994 ft 477 kts 126°
2026-04-20 14:02 41.53167 15.00355 35005 ft 476 kts 126°
2026-04-20 14:02 41.49395 15.07539 34998 ft 475 kts 126°
2026-04-20 14:03 41.45598 15.14754 34981 ft 475 kts 126°
2026-04-20 14:03 41.41803 15.21953 34979 ft 474 kts 126°
2026-04-20 14:04 41.38010 15.29123 34980 ft 474 kts 126°
2026-04-20 14:04 41.34232 15.36234 34978 ft 473 kts 126°
2026-04-20 14:05 41.30431 15.43382 34977 ft 473 kts 126°
2026-04-20 14:05 41.26630 15.50515 34992 ft 472 kts 126°
2026-04-20 14:06 41.22827 15.57634 34991 ft 472 kts 126°
2026-04-20 14:06 41.19047 15.64693 34980 ft 472 kts 126°
2026-04-20 14:07 41.15245 15.71788 34983 ft 471 kts 126°
2026-04-20 14:07 41.11439 15.78858 34984 ft 471 kts 126°
2026-04-20 14:08 41.07630 15.85930 34982 ft 471 kts 126°
2026-04-20 14:08 41.03816 15.92989 34987 ft 471 kts 126°
2026-04-20 14:09 41.00028 15.99998 34986 ft 471 kts 126°
2026-04-20 14:09 40.96207 16.07045 34988 ft 471 kts 126°
2026-04-20 14:10 40.92381 16.14068 34989 ft 471 kts 127°
2026-04-20 14:10 40.88548 16.21092 34991 ft 471 kts 126°
2026-04-20 14:11 40.84739 16.28064 34986 ft 471 kts 127°
2026-04-20 14:11 40.80906 16.35058 34990 ft 470 kts 127°
2026-04-20 14:12 40.77068 16.42049 34991 ft 470 kts 127°
2026-04-20 14:12 40.73228 16.49032 35000 ft 470 kts 127°
2026-04-20 14:13 40.69413 16.55960 34999 ft 470 kts 127°
2026-04-20 14:13 40.65572 16.62921 34993 ft 470 kts 127°
2026-04-20 14:14 40.61727 16.69867 35063 ft 470 kts 127°
2026-04-20 14:14 40.57870 16.76810 35074 ft 470 kts 127°
2026-04-20 14:15 40.54004 16.83745 35070 ft 470 kts 127°
2026-04-20 14:15 40.50163 16.90632 35064 ft 470 kts 127°
2026-04-20 14:16 40.46295 16.97558 35045 ft 470 kts 127°
2026-04-20 14:16 40.42425 17.04478 34995 ft 470 kts 127°
2026-04-20 14:17 40.38551 17.11390 34989 ft 470 kts 127°
2026-04-20 14:17 40.34699 17.18231 34984 ft 470 kts 127°
2026-04-20 14:18 40.30812 17.25117 34983 ft 470 kts 127°
2026-04-20 14:18 40.26926 17.31998 34984 ft 470 kts 127°
2026-04-20 14:19 40.23037 17.38872 34992 ft 470 kts 127°
2026-04-20 14:19 40.19170 17.45697 34996 ft 470 kts 127°
2026-04-20 14:20 40.15274 17.52549 35002 ft 470 kts 127°
2026-04-20 14:20 40.11366 17.59402 35003 ft 470 kts 127°
2026-04-20 14:21 40.07455 17.66247 34999 ft 470 kts 127°
2026-04-20 14:21 40.03536 17.73083 34999 ft 470 kts 127°
2026-04-20 14:22 39.99642 17.79868 34997 ft 470 kts 127°
2026-04-20 14:22 39.95724 17.86697 34996 ft 470 kts 127°
2026-04-20 14:23 39.91795 17.93516 35002 ft 470 kts 127°
2026-04-20 14:23 39.87858 18.00328 35007 ft 471 kts 127°
2026-04-20 14:24 39.83950 18.07085 35003 ft 471 kts 127°
2026-04-20 14:24 39.80005 18.13889 35008 ft 471 kts 127°
2026-04-20 14:25 39.76053 18.20688 35011 ft 471 kts 127°
2026-04-20 14:25 39.72091 18.27475 35008 ft 471 kts 127°
2026-04-20 14:26 39.68157 18.34223 35009 ft 472 kts 127°
2026-04-20 14:26 39.64191 18.41012 35009 ft 472 kts 127°
2026-04-20 14:27 39.60223 18.47788 35010 ft 472 kts 127°
2026-04-20 14:27 39.56245 18.54569 35014 ft 473 kts 127°
2026-04-20 14:28 39.52257 18.61348 35015 ft 473 kts 127°
2026-04-20 14:28 39.48292 18.68074 35014 ft 473 kts 127°
2026-04-20 14:29 39.44287 18.74836 35020 ft 473 kts 128°
2026-04-20 14:29 39.40276 18.81595 35018 ft 474 kts 127°
2026-04-20 14:30 39.36942 18.87205 35017 ft 474 kts 128°
2026-04-20 14:30 39.32243 18.95097 35021 ft 474 kts 128°
2026-04-20 14:31 39.28258 19.01817 35020 ft 475 kts 126°
2026-04-20 14:31 39.25077 19.07591 35017 ft 475 kts 124°
2026-04-20 14:32 39.21382 19.14656 35022 ft 475 kts 123°
2026-04-20 14:32 39.17669 19.21700 35021 ft 476 kts 124°
2026-04-20 14:33 39.13267 19.29826 35024 ft 476 kts 125°
2026-04-20 14:33 39.10071 19.35672 35024 ft 476 kts 125°
2026-04-20 14:34 39.05646 19.43788 35025 ft 477 kts 125°
2026-04-20 14:34 39.02481 19.49601 35028 ft 477 kts 125°
2026-04-20 14:35 38.98673 19.56583 35029 ft 478 kts 125°
2026-04-20 14:35 38.94230 19.64713 35031 ft 478 kts 125°
2026-04-20 14:36 38.91049 19.70513 35029 ft 478 kts 125°
2026-04-20 14:36 38.87214 19.77496 35030 ft 479 kts 125°
2026-04-20 14:37 38.83369 19.84472 35035 ft 479 kts 125°
2026-04-20 14:37 38.79538 19.91392 35036 ft 479 kts 125°
2026-04-20 14:38 38.75688 19.98353 35036 ft 479 kts 125°
2026-04-20 14:38 38.71836 20.05325 35040 ft 479 kts 125°
2026-04-20 14:39 38.67975 20.12290 35039 ft 480 kts 125°
2026-04-20 14:39 38.64099 20.19244 35041 ft 480 kts 125°
2026-04-20 14:40 38.60241 20.26144 35042 ft 480 kts 126°
2026-04-20 14:40 38.56355 20.33091 35040 ft 480 kts 125°
2026-04-20 14:41 38.52469 20.40037 35040 ft 481 kts 126°
2026-04-20 14:41 38.48574 20.46965 35041 ft 481 kts 126°
2026-04-20 14:42 38.44669 20.53896 35044 ft 481 kts 126°
2026-04-20 14:42 38.40792 20.60786 35046 ft 481 kts 126°
2026-04-20 14:43 38.36881 20.67713 35042 ft 481 kts 126°
2026-04-20 14:43 38.32958 20.74637 35044 ft 482 kts 126°
2026-04-20 14:44 38.29035 20.81542 35041 ft 482 kts 126°
2026-04-20 14:44 38.25126 20.88405 35041 ft 482 kts 126°
2026-04-20 14:45 38.21194 20.95316 35037 ft 482 kts 126°
2026-04-20 14:45 38.17252 21.02220 35038 ft 482 kts 126°
2026-04-20 14:46 38.13309 21.09121 35039 ft 483 kts 126°
2026-04-20 14:46 38.09364 21.16010 35041 ft 483 kts 126°
2026-04-20 14:47 38.05435 21.22847 35043 ft 483 kts 126°
2026-04-20 14:48 37.99494 21.33158 35045 ft 483 kts 126°
2026-04-20 14:48 37.95529 21.40023 35040 ft 483 kts 126°
2026-04-20 14:49 37.91584 21.46832 35042 ft 482 kts 126°
2026-04-20 14:49 37.87610 21.53668 35043 ft 482 kts 126°
2026-04-20 14:50 37.83636 21.60513 35043 ft 483 kts 126°
2026-04-20 14:50 37.79651 21.67360 35040 ft 483 kts 127°
2026-04-20 14:51 37.75662 21.74188 35040 ft 483 kts 127°
2026-04-20 14:51 37.71697 21.80959 35039 ft 483 kts 127°
2026-04-20 14:52 37.67695 21.87780 35039 ft 483 kts 127°
2026-04-20 14:52 37.63691 21.94603 35033 ft 483 kts 127°
2026-04-20 14:53 37.59688 22.01403 35032 ft 484 kts 127°
2026-04-20 14:53 37.55702 22.08167 35025 ft 484 kts 127°
2026-04-20 14:54 37.51688 22.14970 35022 ft 484 kts 127°
2026-04-20 14:54 37.47665 22.21769 35015 ft 484 kts 128°
2026-04-20 14:55 37.43628 22.28555 35010 ft 484 kts 127°
2026-04-20 14:55 37.40003 22.35671 35004 ft 484 kts 113°
2026-04-20 14:56 37.37637 22.43494 34999 ft 482 kts 108°
2026-04-20 14:56 37.35338 22.51419 34994 ft 482 kts 108°
2026-04-20 14:57 37.33030 22.59333 34993 ft 482 kts 108°
2026-04-20 14:57 37.30718 22.67245 34991 ft 483 kts 108°
2026-04-20 14:58 37.28415 22.75103 34989 ft 482 kts 109°
2026-04-20 14:58 37.26084 22.82997 34984 ft 482 kts 109°
2026-04-20 14:59 37.23754 22.90876 34983 ft 482 kts 109°
2026-04-20 14:59 37.21421 22.98763 34983 ft 482 kts 109°
2026-04-20 15:00 37.19099 23.06605 34982 ft 482 kts 109°
2026-04-20 15:00 37.16764 23.14474 34978 ft 482 kts 109°
2026-04-20 15:01 37.14415 23.22355 34979 ft 483 kts 109°
2026-04-20 15:01 37.12058 23.30238 34981 ft 483 kts 109°
2026-04-20 15:02 37.09710 23.38060 34979 ft 483 kts 109°
2026-04-20 15:02 37.07338 23.45932 34980 ft 483 kts 109°
2026-04-20 15:03 37.04956 23.53800 34981 ft 483 kts 109°
2026-04-20 15:03 37.02586 23.61610 34933 ft 483 kts 109°
2026-04-20 15:03 37.01396 23.65528 34547 ft 480 kts 109°
2026-04-20 15:04 37.00210 23.69433 33952 ft 480 kts 109°
2026-04-20 15:04 36.99026 23.73330 33331 ft 478 kts 109°
2026-04-20 15:04 36.97847 23.77202 32771 ft 475 kts 109°
2026-04-20 15:04 36.96670 23.81050 32211 ft 473 kts 109°
2026-04-20 15:05 36.95497 23.84877 31653 ft 470 kts 109°
2026-04-20 15:05 36.94331 23.88678 31105 ft 468 kts 109°
2026-04-20 15:05 36.93167 23.92470 30560 ft 466 kts 109°
2026-04-20 15:05 36.92022 23.96195 30021 ft 464 kts 109°
2026-04-20 15:06 36.90868 23.99945 29527 ft 459 kts 109°
2026-04-20 15:06 36.89728 24.03648 29075 ft 454 kts 109°
2026-04-20 15:06 36.88600 24.07307 28634 ft 449 kts 109°
2026-04-20 15:06 36.87486 24.10924 28188 ft 444 kts 109°
2026-04-20 15:07 36.86386 24.14503 27755 ft 439 kts 110°
2026-04-20 15:07 36.85295 24.18046 27318 ft 435 kts 110°
2026-04-20 15:07 36.84213 24.21557 26879 ft 432 kts 110°
2026-04-20 15:07 36.83151 24.24994 26444 ft 428 kts 110°
2026-04-20 15:08 36.82081 24.28450 26000 ft 426 kts 110°
2026-04-20 15:08 36.81014 24.31887 25540 ft 423 kts 110°
2026-04-20 15:08 36.79948 24.35305 25088 ft 421 kts 110°
2026-04-20 15:08 36.78888 24.38697 24611 ft 419 kts 110°
2026-04-20 15:09 36.77832 24.42081 24141 ft 418 kts 110°
2026-04-20 15:09 36.76781 24.45452 23670 ft 416 kts 110°
2026-04-20 15:09 36.75731 24.48811 23141 ft 415 kts 110°
2026-04-20 15:09 36.74832 24.52157 22673 ft 410 kts 101°
2026-04-20 15:10 36.74381 24.55638 22220 ft 406 kts 94°
2026-04-20 15:10 36.74043 24.59117 21765 ft 403 kts 95°
2026-04-20 15:10 36.73702 24.62571 21315 ft 400 kts 95°
2026-04-20 15:10 36.73360 24.65999 20873 ft 397 kts 95°
2026-04-20 15:11 36.73017 24.69404 20431 ft 395 kts 95°
2026-04-20 15:11 36.72676 24.72785 19995 ft 392 kts 95°
2026-04-20 15:11 36.72337 24.76139 19594 ft 389 kts 95°
2026-04-20 15:11 36.72005 24.79425 19159 ft 387 kts 95°
2026-04-20 15:12 36.71670 24.82732 18772 ft 384 kts 95°
2026-04-20 15:12 36.71337 24.86017 18425 ft 379 kts 95°
2026-04-20 15:12 36.71003 24.89284 17963 ft 378 kts 95°
2026-04-20 15:12 36.70669 24.92516 17466 ft 377 kts 95°
2026-04-20 15:13 36.70336 24.95727 17124 ft 371 kts 95°
2026-04-20 15:13 36.70006 24.98914 16729 ft 368 kts 95°
2026-04-20 15:13 36.69680 25.02076 16269 ft 367 kts 95°
2026-04-20 15:13 36.69362 25.05166 15880 ft 365 kts 95°
2026-04-20 15:14 36.69040 25.08280 15573 ft 360 kts 95°
2026-04-20 15:14 36.68718 25.11378 15149 ft 359 kts 95°
2026-04-20 15:14 36.68347 25.14446 14747 ft 358 kts 102°
2026-04-20 15:14 36.67503 25.17336 14451 ft 355 kts 116°
2026-04-20 15:15 36.66119 25.19870 14036 ft 353 kts 131°
2026-04-20 15:15 36.64340 25.21928 13454 ft 345 kts 140°
2026-04-20 15:15 36.62541 25.23824 13069 ft 332 kts 140°
2026-04-20 15:15 36.60813 25.25654 12703 ft 320 kts 140°
2026-04-20 15:16 36.59167 25.27400 12353 ft 309 kts 140°
2026-04-20 15:16 36.57544 25.29128 11998 ft 307 kts 140°
2026-04-20 15:16 36.55924 25.30849 11647 ft 306 kts 140°
2026-04-20 15:16 36.54307 25.32564 11294 ft 305 kts 140°
2026-04-20 15:17 36.52699 25.34269 10925 ft 304 kts 140°
2026-04-20 15:17 36.51092 25.35976 10568 ft 304 kts 140°
2026-04-20 15:17 36.49487 25.37678 10208 ft 303 kts 140°
2026-04-20 15:17 36.47905 25.39354 9828 ft 303 kts 140°
2026-04-20 15:18 36.46300 25.41051 9429 ft 303 kts 140°
2026-04-20 15:18 36.44698 25.42744 9055 ft 302 kts 140°
2026-04-20 15:18 36.43102 25.44428 8664 ft 300 kts 140°
2026-04-20 15:18 36.41516 25.46105 8274 ft 299 kts 140°
2026-04-20 15:19 36.39954 25.47804 7870 ft 299 kts 135°
2026-04-20 15:19 36.38681 25.49821 7483 ft 297 kts 122°
2026-04-20 15:19 36.37593 25.51977 7096 ft 292 kts 122°
2026-04-20 15:19 36.36529 25.54075 6640 ft 282 kts 122°
2026-04-20 15:20 36.35499 25.56093 6243 ft 271 kts 122°
2026-04-20 15:20 36.34531 25.57985 6024 ft 253 kts 122°
2026-04-20 15:20 36.33627 25.59749 5943 ft 233 kts 122°
2026-04-20 15:20 36.32781 25.61403 5862 ft 225 kts 122°
2026-04-20 15:21 36.31949 25.63033 5771 ft 223 kts 122°
2026-04-20 15:21 36.31129 25.64610 5762 ft 210 kts 127°
2026-04-20 15:21 36.30048 25.65680 5694 ft 192 kts 158°
2026-04-20 15:21 36.28822 25.66080 5641 ft 174 kts 179°
2026-04-20 15:22 36.27652 25.65978 5612 ft 168 kts 198°
2026-04-20 15:22 36.26575 25.65428 5572 ft 170 kts 217°
2026-04-20 15:22 36.25690 25.64476 5536 ft 168 kts 235°
2026-04-20 15:22 36.25108 25.63249 5500 ft 164 kts 253°
2026-04-20 15:23 36.24870 25.61885 5460 ft 161 kts 270°
2026-04-20 15:23 36.24981 25.60520 5417 ft 160 kts 287°
2026-04-20 15:23 36.25421 25.59268 5386 ft 159 kts 303°
2026-04-20 15:23 36.26144 25.58240 5355 ft 159 kts 319°
2026-04-20 15:24 36.27053 25.57430 5077 ft 166 kts 322°
2026-04-20 15:24 36.27980 25.56539 4463 ft 173 kts 320°
2026-04-20 15:24 36.28908 25.55627 3894 ft 169 kts 320°
2026-04-20 15:24 36.29834 25.54750 3342 ft 166 kts 322°
2026-04-20 15:25 36.30755 25.53919 2805 ft 162 kts 322°
2026-04-20 15:25 36.31679 25.53120 2252 ft 160 kts 323°
2026-04-20 15:25 36.32624 25.52447 1882 ft 152 kts 330°
2026-04-20 15:25 36.33528 25.51844 1688 ft 144 kts 328°
2026-04-20 15:26 36.34381 25.51218 1399 ft 141 kts 325°
2026-04-20 15:26 36.35200 25.50564 1155 ft 140 kts 324°
2026-04-20 15:26 36.36013 25.49933 877 ft 140 kts 325°
2026-04-20 15:26 36.36874 25.49371 576 ft 140 kts 334°
2026-04-20 15:27 36.37802 25.48934 324 ft 143 kts 334°
2026-04-20 15:27 36.38728 25.48483 137 ft 143 kts 333°
2026-04-20 15:27 36.39630 25.48046 72 ft 124 kts 336°
2026-04-20 15:27 36.40156 25.47802 88 ft 37 kts 339°
2026-04-20 15:28 36.40268 25.47751 91 ft 13 kts 340°
2026-04-20 15:28 36.40316 25.47723 90 ft 4 kts 313°
2026-04-20 15:28 36.40320 25.47700 89 ft 2 kts 269°
2026-04-20 15:28 36.40315 25.47679 89 ft 4 kts 250°
2026-04-20 15:29 36.40302 25.47637 91 ft 6 kts 249°
2026-04-20 15:29 36.40285 25.47583 90 ft 6 kts 249°
2026-04-20 15:29 36.40282 25.47573 90 ft 1 kts 249°
2026-04-20 15:29 36.40279 25.47561 92 ft 2 kts 249°
2026-04-20 15:30 36.40270 25.47533 91 ft 7 kts 247°
2026-04-20 15:30 36.40270 25.47483 90 ft 6 kts 313°
2026-04-20 15:30 36.40301 25.47466 89 ft 4 kts 339°
2026-04-20 15:30 36.40322 25.47456 90 ft 2 kts 339°
2026-04-20 15:31 36.40343 25.47446 91 ft 5 kts 339°
2026-04-20 15:31 36.40368 25.47434 92 ft 3 kts 339°
2026-04-20 15:31 36.40383 25.47427 90 ft 2 kts 339°
2026-04-20 15:31 36.40394 25.47411 90 ft 2 kts 287°
2026-04-20 15:32 36.40392 25.47395 90 ft 3 kts 255°
2026-04-20 15:32 36.40384 25.47371 90 ft 2 kts 249°
2026-04-20 15:32 36.40382 25.47362 90 ft 0 kts 249°